[[{"header":{"parameterUnit":"m.s-1","parameterCategory":1,"la1":30.2991,"la2":30.254,"lo1":-89.0895,"lo2":-89.0444,"dy":0.0017,"dx":0.0017,"nx":28,"ny":28,"refTime":"2023-10-20T21:00:00:Z","depth":0,"parameterNumber":2,"parameterNumberName":"U-component_of_WINDS"},"data":[0,0,0,0,0,0,0,0,0,0,0,0,0,0,0,0,0,0,0,0,0,0,0,0,0,0,0,0,0,0,0,0,0,0,0,0,0,0,0,0,0,0,0,0,0,0,0,0,0,0,0,0,0,0,0,0,0,0,-1.5962,-1.596,0,-1.5824,-1.5822,-1.5821,-1.5709,-1.5707,-1.5706,-1.5705,-1.5563,-1.556,-1.5558,0,0,0,0,0,0,0,0,0,0,0,0,0,-1.6128,-1.6126,-1.5962,-1.596,-1.5958,-1.5824,-1.5822,-1.582,-1.5709,-1.5707,-1.5706,-1.5705,-1.5564,-1.5561,-1.5557,0,0,0,0,0,0,0,0,0,0,0,0,0,-1.603,-1.6125,-1.5962,-1.5886,-1.5878,-1.5825,-1.5822,-1.582,-1.5709,-1.5707,-1.5706,-1.5704,-1.5565,-1.5561,-1.5557,-1.5567,0,0,-1.5544,-1.5543,0,0,0,0,0,0,0,0,-1.6036,-1.6024,-1.5899,-1.5892,-1.5882,-1.5782,-1.5829,-1.5735,-1.5709,-1.5773,-1.5705,-1.5703,-1.5637,-1.5627,-1.5605,-1.556,-1.5554,-1.5544,-1.5542,-1.554,-1.5539,0,0,0,0,0,0,0,-1.6043,-1.6029,-1.5907,-1.5898,-1.5887,-1.586,-1.5844,-1.5811,-1.5717,-1.5768,-1.5759,-1.5744,-1.5632,-1.5609,-1.5601,-1.5552,-1.5544,-1.5541,-1.5538,-1.5537,-1.551,-1.5512,0,0,0,0,0,0,-1.6061,-1.6036,-1.5911,-1.5903,-1.5956,-1.5858,-1.584,-1.5816,-1.5717,-1.57,-1.5746,-1.574,-1.5617,-1.5606,-1.5595,-1.5601,-1.554,-1.5536,-1.5534,-1.5508,-1.551,-1.5512,0,0,0,0,0,0,-1.6065,-1.6051,-1.5917,-1.5967,-1.5948,-1.5857,-1.583,-1.5814,-1.5791,-1.57,-1.5683,-1.574,-1.5615,-1.5601,-1.5575,-1.5594,-1.5534,-1.5531,-1.5506,-1.5509,-1.5511,-1.5612,0,0,0,0,0,0,-1.6071,-1.6053,-1.6056,-1.5968,-1.5946,-1.5899,-1.5832,-1.5812,-1.5784,-1.5775,-1.569,-1.5674,-1.5613,-1.5582,-1.5571,-1.5588,-1.5527,-1.5504,-1.5508,-1.5511,-1.5607,-1.5618,-1.5627,0,0,0,0,0,-1.6077,-1.6089,-1.6056,-1.6042,-1.5947,-1.5901,-1.5888,-1.5817,-1.5786,-1.5788,-1.5731,-1.5677,-1.5595,-1.558,-1.5567,-1.5583,-1.5503,-1.5507,-1.551,-1.5602,-1.5616,-1.5627,0,0,0,0,0,0,-1.618,-1.6076,-1.6039,-1.6023,-1.5972,-1.5882,-1.5881,-1.5833,-1.5789,-1.5782,-1.5696,-1.5678,-1.5662,-1.562,-1.5605,-1.5588,-1.5542,-1.5543,-1.5616,-1.5628,-1.5638,-1.5648,-1.5524,0,0,0,0,0,-1.6201,-1.6173,-1.6083,-1.6078,-1.6054,-1.5973,-1.595,-1.59,-1.5843,-1.5821,-1.5761,-1.5708,-1.567,-1.5647,-1.5607,-1.5601,-1.5581,-1.5605,-1.5616,-1.5625,-1.5627,-1.5622,-1.5631,-1.5525,-1.5525,-1.5525,0,0,-1.6244,-1.6184,-1.617,-1.6097,-1.6051,-1.6024,-1.5955,-1.5928,-1.5907,-1.5817,-1.5789,-1.5744,-1.5679,-1.5663,-1.5653,-1.5628,-1.5652,-1.563,-1.5638,-1.5634,-1.5627,-1.5637,-1.5646,-1.5528,-1.5527,-1.5527,0,0,-1.6308,-1.6259,-1.625,-1.6206,-1.6139,-1.6085,-1.6084,-1.6001,-1.5968,-1.5939,-1.5872,-1.5846,-1.5782,-1.5739,-1.5709,-1.576,-1.571,-1.575,-1.5803,-1.58,-1.5808,-1.5815,-1.5834,-1.5841,-1.5752,-1.5753,-1.5753,0,-1.6369,-1.6325,-1.6251,-1.6229,-1.6199,-1.6118,-1.6108,-1.6069,-1.5992,-1.5974,-1.5947,-1.5867,-1.5817,-1.5791,-1.5804,-1.5782,-1.5778,-1.5758,-1.5813,-1.5819,-1.5824,-1.5841,-1.5849,-1.5758,-1.5757,-1.5757,-1.5756,0,-1.6404,-1.6375,-1.6375,-1.6304,-1.6274,-1.6259,-1.6183,-1.6162,-1.6117,-1.6066,-1.6039,-1.5977,-1.5924,-1.5915,-1.5869,-1.5883,-1.5869,-1.5829,-1.578,-1.5841,-1.5856,-1.5861,-1.5766,-1.5764,-1.5762,-1.5761,0,0,-1.6525,-1.6416,-1.6418,-1.6385,-1.6307,-1.6282,-1.6264,-1.6213,-1.6197,-1.6148,-1.613,-1.608,-1.6043,-1.6009,-1.5958,-1.5955,-1.6001,-1.5915,-1.5912,-1.5933,-1.6014,-1.6044,-1.6053,-1.5968,-1.5969,-1.597,-1.6019,0,-1.6576,-1.6538,-1.6473,-1.6456,-1.6429,-1.6353,-1.6337,-1.6288,-1.6241,-1.6212,-1.616,-1.6126,-1.6079,-1.6059,-1.6052,-1.5997,-1.6016,-1.5993,-1.5951,-1.595,-1.5968,-1.606,-1.6091,-1.6141,-1.6024,-1.6025,-1.6026,0,-1.6629,-1.6586,-1.6567,-1.6492,-1.6478,-1.6465,-1.6414,-1.6387,-1.633,-1.6296,-1.6261,-1.6206,-1.6183,-1.6141,-1.6109,-1.6094,-1.6074,-1.6045,-1.6045,-1.6037,-1.5991,-1.6055,-1.6155,-1.6162,-1.6034,-1.6033,-1.6033,0,-1.672,-1.6657,-1.6637,-1.6612,-1.6524,-1.6517,-1.6481,-1.6422,-1.6396,-1.6352,-1.6335,-1.6289,-1.6264,-1.623,-1.6165,-1.614,-1.6141,-1.6092,-1.6112,-1.6114,-1.6114,-1.6115,-1.6212,-1.6103,-1.6103,-1.6103,-1.6103,0,-1.6782,-1.6774,-1.6677,-1.6666,-1.6654,-1.658,-1.6571,-1.6527,-1.6477,-1.6456,-1.6388,-1.6369,-1.6284,-1.6257,-1.6206,-1.6188,-1.6177,-1.6149,-1.6136,-1.6155,-1.6158,-1.6139,-1.6134,-1.6105,-1.6104,-1.6104,-1.6104,0,-1.6881,-1.6816,-1.679,-1.6711,-1.669,-1.6686,-1.6617,-1.6604,-1.6555,-1.6529,-1.6518,-1.6441,-1.6405,-1.6337,-1.6282,-1.6248,-1.6241,-1.6217,-1.626,-1.6252,-1.6276,-1.6274,-1.6363,-1.6372,-1.6258,-1.626,-1.6261,0,-1.6925,-1.6916,-1.6837,-1.6818,-1.6784,-1.6755,-1.6729,-1.6657,-1.6633,-1.6569,-1.6564,-1.6523,-1.6485,-1.6432,-1.6371,-1.6329,-1.6303,-1.6338,-1.6296,-1.6317,-1.6304,-1.6305,-1.6304,-1.6347,-1.6348,-1.635,-1.6351,0,-1.7009,-1.6978,-1.6944,-1.6899,-1.6871,-1.6832,-1.6789,-1.6778,-1.6696,-1.6673,-1.6636,-1.6608,-1.6552,-1.6513,-1.6462,-1.6424,-1.6374,-1.6365,-1.6367,-1.6386,-1.6411,-1.6398,-1.6285,-1.6362,-1.6361,-1.636,-1.636,-1.6359,-1.7081,-1.7071,-1.7014,-1.6979,-1.694,-1.6902,-1.6886,-1.6836,-1.6804,-1.6753,-1.6713,-1.668,-1.6625,-1.6553,-1.6518,-1.6492,-1.6468,-1.6471,-1.6472,-1.6474,-1.6482,-1.6417,-1.6482,-1.6482,-1.6481,-1.6481,-1.6481,0,-1.7162,-1.7122,-1.7091,-1.7034,-1.7007,-1.6964,-1.6916,-1.6896,-1.6867,-1.6821,-1.6787,-1.6746,-1.6708,-1.6645,-1.6602,-1.6593,-1.6569,-1.6584,-1.6584,-1.6576,-1.6505,-1.6508,-1.6605,-1.6605,-1.6604,-1.6604,-1.6604,-1.6604,-1.7201,-1.7182,-1.7145,-1.7107,-1.7067,-1.7034,-1.7011,-1.6976,-1.6939,-1.6896,-1.6865,-1.6825,-1.6772,-1.6726,-1.669,-1.6672,-1.666,-1.6682,-1.6658,-1.6593,-1.6581,-1.657,-1.6571,-1.668,-1.668,-1.673,-1.6731,-1.6731]},{"header":{"parameterUnit":"m.s-1","parameterCategory":1,"la1":30.2991,"la2":30.254,"lo1":-89.0895,"lo2":-89.0444,"dy":0.0017,"dx":0.0017,"nx":28,"ny":28,"refTime":"2023-10-20T21:00:00:Z","depth":0,"parameterNumber":3,"parameterNumberName":"V-component_of_WINDS"},"data":[0,0,0,0,0,0,0,0,0,0,0,0,0,0,0,0,0,0,0,0,0,0,0,0,0,0,0,0,0,0,0,0,0,0,0,0,0,0,0,0,0,0,0,0,0,0,0,0,0,0,0,0,0,0,0,0,0,0,2.2091,2.2091,0,2.2038,2.2037,2.2037,2.2063,2.2065,2.2066,2.2068,2.2006,2.2003,2.2,0,0,0,0,0,0,0,0,0,0,0,0,0,2.2212,2.2209,2.2091,2.2091,2.209,2.2038,2.2037,2.2037,2.2063,2.2065,2.2067,2.2068,2.2007,2.2004,2.2,0,0,0,0,0,0,0,0,0,0,0,0,0,2.2159,2.2209,2.2092,2.2097,2.2097,2.2038,2.2037,2.2036,2.2063,2.2065,2.2067,2.2069,2.2008,2.2004,2.2,2.193,0,0,2.1986,2.1984,0,0,0,0,0,0,0,0,2.2162,2.2154,2.2097,2.2097,2.2097,2.206,2.2057,2.2,2.2062,2.2076,2.2068,2.207,2.2022,2.2016,2.2002,2.1927,2.1924,2.1986,2.1983,2.1981,2.198,0,0,0,0,0,0,0,2.2165,2.2157,2.207,2.2096,2.2096,2.2101,2.2096,2.2047,2.2037,2.2075,2.2076,2.207,2.2022,2.2006,2.2,2.1924,2.1986,2.1982,2.1979,2.1978,2.1791,2.1789,0,0,0,0,0,0,2.217,2.216,2.2072,2.2068,2.2135,2.2097,2.2091,2.2069,2.2038,2.2035,2.2068,2.2072,2.2012,2.2005,2.1998,2.1916,2.1981,2.1977,2.1975,2.1793,2.179,2.1788,0,0,0,0,0,0,2.2172,2.2161,2.2074,2.2115,2.2104,2.2093,2.2068,2.2067,2.2051,2.2033,2.2031,2.2054,2.2014,2.2004,2.1948,2.1914,2.1975,2.1971,2.1796,2.1792,2.1789,2.175,0,0,0,0,0,0,2.2175,2.2162,2.2137,2.2114,2.2102,2.2026,2.2066,2.2064,2.2044,2.2048,2.2019,2.2016,2.2015,2.1954,2.1943,2.1909,2.1968,2.1799,2.1794,2.179,2.1754,2.1746,2.1738,0,0,0,0,0,2.218,2.2126,2.2135,2.2124,2.207,2.2024,2.2016,2.2017,2.2041,2.2015,2.2004,2.2017,2.192,2.1948,2.1936,2.19,2.1801,2.1796,2.1791,2.1758,2.1747,2.1739,0,0,0,0,0,0,2.2142,2.2123,2.2133,2.2071,2.2049,2.2028,2.1995,2.2006,2.1975,2.198,2.198,2.1974,2.1915,2.1902,2.1934,2.1832,2.1864,2.1856,2.1843,2.1833,2.1825,2.183,2.1964,0,0,0,0,0,2.2127,2.2093,2.2077,2.2024,2.2013,2.2006,2.1985,2.1989,2.1965,2.1955,2.194,2.1915,2.1879,2.1855,2.1821,2.1752,2.1747,2.1722,2.1714,2.1707,2.1701,2.1665,2.1654,2.1771,2.1771,2.1771,0,0,2.2095,2.208,2.2058,2.2016,2.2,2.1963,2.1998,2.1957,2.193,2.1948,2.1895,2.1883,2.1855,2.1793,2.1764,2.178,2.1667,2.1701,2.1696,2.1693,2.1659,2.1648,2.1638,2.1767,2.1768,2.1768,0,0,2.2018,2.2003,2.1958,2.1942,2.1917,2.1913,2.1902,2.188,2.1874,2.1821,2.1835,2.1801,2.1738,2.1719,2.1701,2.1618,2.163,2.1607,2.1565,2.153,2.1521,2.1513,2.1485,2.1475,2.16,2.16,2.16,0,2.198,2.1928,2.1933,2.1892,2.1874,2.1892,2.1846,2.1828,2.1793,2.1779,2.1797,2.1721,2.1703,2.1637,2.1617,2.1601,2.1589,2.161,2.1523,2.1514,2.1507,2.148,2.1469,2.1597,2.1598,2.1598,2.1598,0,2.1883,2.1847,2.1813,2.1782,2.1759,2.1716,2.1713,2.1689,2.1694,2.1688,2.1634,2.1614,2.1577,2.1561,2.1564,2.1496,2.1506,2.1523,2.1555,2.1493,2.1468,2.1458,2.1594,2.1595,2.1595,2.1596,0,0,2.178,2.1755,2.1742,2.1729,2.1704,2.1675,2.1632,2.1599,2.1579,2.1553,2.1518,2.1466,2.1482,2.1461,2.1463,2.1432,2.137,2.1453,2.1452,2.1439,2.1294,2.1283,2.1271,2.1377,2.1375,2.1374,2.1297,0,2.1703,2.1631,2.1635,2.1567,2.1534,2.1551,2.1514,2.1494,2.1488,2.1457,2.1448,2.1412,2.1436,2.1424,2.1394,2.1384,2.1341,2.1389,2.1343,2.1342,2.1351,2.1257,2.1244,2.1173,2.1287,2.1285,2.1284,0,2.1603,2.1578,2.1508,2.149,2.1476,2.1443,2.1413,2.1384,2.1362,2.1359,2.1337,2.1344,2.13,2.1333,2.1273,2.1305,2.1287,2.1279,2.1276,2.1272,2.131,2.1252,2.115,2.114,2.1268,2.127,2.1271,0,2.1537,2.1485,2.1437,2.1425,2.1403,2.1379,2.1368,2.1348,2.1328,2.1302,2.1289,2.1256,2.1238,2.1212,2.121,2.1234,2.1149,2.1182,2.1145,2.1145,2.1127,2.1128,2.1021,2.1113,2.1113,2.1113,2.1114,0,2.145,2.1407,2.1408,2.1378,2.133,2.1334,2.1286,2.1277,2.1259,2.1228,2.1239,2.1209,2.1207,2.1175,2.1173,2.1124,2.1115,2.1111,2.1111,2.1111,2.1111,2.1099,2.1104,2.1111,2.1111,2.1112,2.1112,0,2.1368,2.1367,2.1316,2.13,2.1295,2.126,2.1246,2.1217,2.1212,2.1172,2.1163,2.1154,2.1118,2.1113,2.1069,2.1068,2.1009,2.1014,2.1018,2.1019,2.0983,2.0987,2.0865,2.085,2.0951,2.095,2.0949,0,2.1314,2.1281,2.1263,2.1244,2.1233,2.1201,2.1182,2.1184,2.1164,2.1137,2.1111,2.1077,2.105,2.099,2.0979,2.0946,2.0951,2.091,2.0946,2.0947,2.0951,2.0954,2.0951,2.0904,2.0903,2.0902,2.0901,0,2.1217,2.1219,2.1192,2.1165,2.1143,2.1121,2.11,2.1083,2.1083,2.1059,2.1024,2.1002,2.096,2.0925,2.0893,2.088,2.089,2.089,2.088,2.088,2.0884,2.0883,2.1,2.0893,2.0894,2.0894,2.0895,2.0895,2.1148,2.1121,2.1105,2.1074,2.106,2.1041,2.1014,2.1007,2.0979,2.0946,2.0949,2.091,2.0889,2.0848,2.0832,2.0801,2.0814,2.0799,2.0796,2.0792,2.079,2.0889,2.0795,2.0795,2.0795,2.0796,2.0796,0,2.1054,2.1045,2.1017,2.099,2.0966,2.098,2.0959,2.0937,2.0904,2.0885,2.0858,2.0818,2.0785,2.0772,2.074,2.0717,2.0721,2.0709,2.0711,2.0708,2.0779,2.0792,2.0706,2.0706,2.0706,2.0706,2.0706,2.0706,2.1002,2.0958,2.0957,2.0906,2.0896,2.0861,2.0847,2.083,2.0815,2.077,2.0744,2.0737,2.072,2.0687,2.0657,2.0654,2.0642,2.0628,2.0627,2.0693,2.0703,2.0711,2.0723,2.0625,2.0625,2.0558,2.0558,2.0557]}]]